Location: Azalea Creek
(37.1280°N, 119.2623°W)
Time: 18:39:37
(UTC+00:00)

MOS 1 - Pass Details

Date: 17 February 2020
Orbit: 878 x 891 km, 99.2° (Epoch: 28 March)

Event Time Altitude Azimuth Distance (km) Brightness Sun altitude
Exits shadow 03:40:03 18° 166° (SSE) 2,012 6.0 -25.0°
Maximum altitude 03:44:21 88° 256° (WSW) 891 4.2 -25.8°
Drops below altitude 10° 03:50:02 10° 346° (NNW) 2,549 6.9 -27.0°
Sets 03:52:26 0° 347° (NNW) 3,490 7.6 -27.4°
